Location: Newark
(45.5167°N, 11.1667°E)
Time: 23:18:04
(UTC+00:00)

SR - All Passes

Search period start: 08 December 2019 00:00
Search period end: 18 December 2019 00:00
Orbit: 573 x 882 km, 66.7° (Epoch: 07 December)

Date Brightness Start Highest point End Pass type
(mag) Time Alt. Az. Time Alt. Az. Time Alt. Az.
08 Dec - 08:19:05 10° SSE 08:23:37 27° ESE 08:28:24 10° NE daylight
08 Dec - 09:59:57 10° SW 10:05:23 55° NW 10:11:11 10° NNE daylight
08 Dec - 11:45:19 10° WNW 11:48:52 16° NNW 11:52:30 10° N daylight
08 Dec - 15:16:00 10° N 15:18:43 13° NNE 15:21:24 10° NE daylight
08 Dec - 16:57:04 10° NNW 17:02:36 39° NE 17:07:53 10° ESE visible
08 Dec - 18:39:16 10° NW 18:44:49 44° WSW 18:50:03 10° S visible
09 Dec - 07:31:36 10° SE 07:34:27 14° ESE 07:37:22 10° ENE daylight
09 Dec - 09:10:06 10° SSW 09:15:37 86° ESE 09:21:32 10° NNE daylight
09 Dec - 10:54:02 10° W 10:58:32 23° NW 11:03:12 10° NNE daylight
09 Dec - 14:27:27 10° N 14:28:07 10° NNE 14:28:47 10° NNE daylight
09 Dec - 16:07:37 10° NNW 16:12:29 25° NE 16:17:11 10° E visible
09 Dec - 17:49:22 10° NW 17:55:18 79° WSW 18:00:52 10° SSE visible
09 Dec - 19:33:54 10° WNW 19:36:23 13° W 19:38:50 10° SW visible
10 Dec - 08:20:50 10° S 08:26:04 48° ESE 08:31:39 10° NE daylight
10 Dec - 10:03:14 10° WSW 10:08:23 35° NW 10:13:47 10° NNE daylight
10 Dec - 11:49:58 10° NW 11:52:22 12° NNW 11:54:47 10° N daylight
10 Dec - 15:18:18 10° N 15:22:11 17° NNE 15:25:58 10° ENE daylight
10 Dec - 16:59:41 10° NNW 17:05:34 61° NE 17:11:07 10° SE visible
10 Dec - 18:42:36 10° NW 18:47:14 25° WSW 18:51:41 10° SSW visible
11 Dec - 07:32:15 10° SSE 07:36:43 26° ESE 07:41:25 10° NE daylight
11 Dec - 09:12:56 10° SW 09:18:26 58° NW 09:24:16 10° NNE daylight
11 Dec - 10:58:12 10° WNW 11:01:52 17° NNW 11:05:38 10° N daylight
11 Dec - 14:29:08 10° N 14:31:42 13° NNE 14:34:15 10° NE daylight
11 Dec - 16:10:09 10° NNW 16:15:38 37° NE 16:20:52 10° ESE visible
11 Dec - 17:52:20 10° NW 17:57:54 46° WSW 18:03:10 10° S visible
12 Dec - 06:44:57 10° SE 06:47:34 14° E 06:50:15 10° ENE daylight
12 Dec - 08:23:09 10° SSW 08:28:41 82° ESE 08:34:36 10° NE daylight
12 Dec - 10:06:57 10° W 10:11:33 24° NW 10:16:18 10° NNE daylight
12 Dec - 15:20:44 10° NNW 15:25:30 24° NE 15:30:07 10° E daylight
12 Dec - 17:02:26 10° NW 17:08:22 83° WSW 17:13:56 10° SSE visible
12 Dec - 18:46:45 10° WNW 18:49:31 14° WSW 18:52:12 10° SW visible
13 Dec - 07:33:56 10° S 07:39:09 45° ESE 07:44:43 10° NE daylight
13 Dec - 09:16:13 10° WSW 09:21:25 37° NW 09:26:53 10° NNE daylight
13 Dec - 11:02:48 10° NW 11:05:21 13° NNW 11:07:55 10° N daylight
13 Dec - 14:31:24 10° N 14:35:10 17° NNE 14:38:51 10° ENE daylight
13 Dec - 16:12:46 10° NNW 16:18:37 58° NE 16:24:08 10° SE visible
13 Dec - 17:55:36 10° NW 18:00:20 26° WSW 18:04:52 10° SSW visible
14 Dec - 06:45:26 10° SSE 06:49:49 25° ESE 06:54:26 10° NE daylight
14 Dec - 08:25:57 10° SW 08:31:29 61° NW 08:37:21 10° NNE daylight
14 Dec - 10:11:05 10° WNW 10:14:52 17° NNW 10:18:45 10° N daylight
14 Dec - 13:42:16 10° N 13:44:41 12° NNE 13:47:05 10° NE daylight
14 Dec - 15:23:15 10° NNW 15:28:40 35° NE 15:33:50 10° ESE daylight
14 Dec - 17:05:23 10° NW 17:11:00 48° WSW 17:16:16 10° S visible
15 Dec - 05:58:19 10° SE 06:00:41 13° E 06:03:05 10° ENE visible
15 Dec - 07:36:13 10° SSW 07:41:45 78° ESE 07:47:40 10° NE daylight
15 Dec - 09:19:53 10° W 09:24:34 25° NW 09:29:26 10° NNE daylight
15 Dec - 11:08:15 10° NNW 11:08:56 10° NNW 11:09:37 10° N daylight
15 Dec - 14:33:50 10° NNW 14:38:31 23° NE 14:43:02 10° E daylight
15 Dec - 16:15:31 10° NNW 16:21:26 87° WSW 16:26:59 10° SSE visible
15 Dec - 17:59:37 10° WNW 18:02:37 15° WSW 18:05:32 10° SW visible
16 Dec - 06:47:02 10° S 06:52:14 43° ESE 06:57:46 10° NE daylight
16 Dec - 08:29:10 10° WSW 08:34:27 39° NW 08:39:59 10° NNE daylight
16 Dec - 10:15:38 10° NW 10:18:20 13° NNW 10:21:03 10° N daylight
16 Dec - 13:44:32 10° N 13:48:10 16° NNE 13:51:45 10° ENE daylight
16 Dec - 15:25:52 10° NNW 15:31:41 55° NE 15:37:08 10° SE daylight
16 Dec - 17:08:37 10° NW 17:13:27 28° WSW 17:18:02 10° SSW visible
17 Dec - 05:58:37 10° SSE 06:02:55 24° ESE 06:07:26 10° NE visible
17 Dec - 07:38:58 10° SW 07:44:32 64° NW 07:50:26 10° NNE daylight
17 Dec - 09:23:58 10° WNW 09:27:52 18° NNW 09:31:51 10° N daylight
17 Dec - 12:55:25 10° N 12:57:40 12° NNE 12:59:54 10° NE daylight
17 Dec - 14:36:21 10° NNW 14:41:42 34° NE 14:46:47 10° ESE daylight
17 Dec - 16:18:26 10° NW 16:24:05 51° WSW 16:29:22 10° S visible
